DW7921 Burien WA US current weather conditions

sailwx.info

Wind from 027 at 1 knots gusting 5

Air temperature 26.7° C
Dewpoint 14.7° C

Last reported at 2020-Aug-15 20:00 UTC.
Time now 2020-Aug-15 20:21 UTC

Location: N 47°29' W 122°20'.
View on Google Maps.

See reports from other nearby stations

  
Tides and Currents Weather Stations Pressure Air Temp Water Temp Dewpoint Dewpoint Depression Visibility Wind Speed Wind Dir Waves Ship Positions
date/time (UTC)wind fromknots sea level pressurealtimeterstation pressurevisibilityair tempwater tempwave heightnotes
2020-Aug-15 20:00 027 1 gusting 5 26.7
2020-Aug-15 19:45 051 4 gusting 7 25.6
2020-Aug-15 19:30 004 2 gusting 7 25.6
2020-Aug-15 19:15 030 3 gusting 7 25.6
2020-Aug-15 19:02 022 2 gusting 6 25.0
2020-Aug-15 18:47 064 1 gusting 5 24.4
2020-Aug-15 18:32 074 4 gusting 7 23.3
2020-Aug-15 18:17 077 3 gusting 8 23.3
2020-Aug-15 18:02 051 2 gusting 6 23.3
2020-Aug-15 17:46 359 2 gusting 7 22.2
2020-Aug-15 17:31 063 5 gusting 8 22.2
2020-Aug-15 17:16 033 2 gusting 4 22.2
2020-Aug-15 17:00 061 1 gusting 6 21.1
2020-Aug-15 16:46 037 2 gusting 6 20.6
2020-Aug-15 16:31 009 4 gusting 8 20.0
2020-Aug-15 16:15 025 3 gusting 6 20.0
2020-Aug-15 16:00 067 4 gusting 8 19.4
2020-Aug-15 15:46 049 3 gusting 6 18.9
2020-Aug-15 15:30 030 1 gusting 5 18.3
2020-Aug-15 15:15 051 0 gusting 4 17.8
2020-Aug-15 15:00 027 1 gusting 3 17.8
2020-Aug-15 14:45 058 0 gusting 5 16.7
2020-Aug-15 14:31 049 0 gusting 2 16.1
2020-Aug-15 14:15 039 15.6
2020-Aug-15 14:00 065 0 gusting 2 15.6
2020-Aug-15 13:45
2020-Aug-15 13:30
2020-Aug-15 13:17
2020-Aug-15 13:01
2020-Aug-15 12:46
2020-Aug-15 12:31
2020-Aug-15 12:16
2020-Aug-15 12:00
2020-Aug-15 11:46
2020-Aug-15 11:31 006 0 gusting 3 15.0
2020-Aug-15 11:16 008 15.6
2020-Aug-15 11:00 015 15.6
2020-Aug-15 10:45 033 15.6
2020-Aug-15 10:30 030 16.1
2020-Aug-15 10:16 001 16.1
2020-Aug-15 10:00 040 16.1
2020-Aug-15 09:45 061 0 gusting 3 16.7
2020-Aug-15 09:30 004 1 gusting 5 16.7
2020-Aug-15 09:15 020 2 gusting 4 16.7
2020-Aug-15 09:00 034 1 gusting 5 16.7
2020-Aug-15 08:45 025 0 gusting 2 17.2
2020-Aug-15 08:30 040 17.2
2020-Aug-15 08:15 054 17.2
2020-Aug-15 08:02 034 17.8
2020-Aug-15 07:46 030 1 gusting 4 17.8
2020-Aug-15 07:32 058 1 gusting 4 18.3
2020-Aug-15 07:17 032 18.3
2020-Aug-15 07:00 358 0 gusting 3 18.3
2020-Aug-15 06:46 051 1 gusting 4 18.3
2020-Aug-15 06:32 009 18.3
2020-Aug-15 06:16 063 0 gusting 3 18.9
2020-Aug-15 06:01 023 1 gusting 4 19.4
2020-Aug-15 05:45 045 0 gusting 3 19.4
2020-Aug-15 05:31 069 1 gusting 6 20.0
2020-Aug-15 05:16 015 1 gusting 3 20.0
2020-Aug-15 05:01 087 0 gusting 3 20.6
2020-Aug-15 04:45 057 0 gusting 5 20.6
2020-Aug-15 04:31 058 1 gusting 3 20.6
2020-Aug-15 04:17 018 1 gusting 3 21.1
2020-Aug-15 04:01 065 0 gusting 3 21.1
2020-Aug-15 03:46 036 1 gusting 4 21.1
2020-Aug-15 03:30 061 0 gusting 3 21.7
2020-Aug-15 03:16 037 0 gusting 2 21.7
2020-Aug-15 03:02 001 22.2
2020-Aug-15 02:46 048 22.8
2020-Aug-15 02:30 027 23.3
2020-Aug-15 02:15 004 2 gusting 5 23.9
2020-Aug-15 02:02 335 1 gusting 8 23.9
2020-Aug-15 01:46 019 2 gusting 6 24.4
2020-Aug-15 01:30 326 1 gusting 9 24.4
2020-Aug-15 01:15 029 2 gusting 6 25.0
2020-Aug-15 01:01 018 1 gusting 8 24.4
2020-Aug-15 00:45 011 3 gusting 6 25.0
2020-Aug-15 00:31 043 2 gusting 6 25.0
2020-Aug-15 00:15 022 5 gusting 10 25.0
2020-Aug-15 00:01 012 0 gusting 6 25.0
2020-Aug-14 23:45 031 2 gusting 6 24.4
2020-Aug-14 23:30 025 3 gusting 8 25.0
2020-Aug-14 23:15 027 2 gusting 6 25.6
2020-Aug-14 23:00 084 2 gusting 7 25.6
2020-Aug-14 22:45 027 2 gusting 7 25.0
2020-Aug-14 22:30 018 4 gusting 6 24.4
2020-Aug-14 22:15 027 2 gusting 7 24.4
2020-Aug-14 22:00 044 1 gusting 6 24.4
2020-Aug-14 21:47 084 1 gusting 7 24.4
2020-Aug-14 21:31 019 23.9
2020-Aug-14 21:17 039 1 gusting 5 23.9
2020-Aug-14 21:01 330 2 gusting 5 23.3
2020-Aug-14 20:47 098 1 gusting 6 23.3
2020-Aug-14 20:31 019 2 gusting 6 22.8
2020-Aug-14 20:16 043 1 gusting 5 23.3
2020-Aug-14 20:03 224 0 gusting 6 21.1
2020-Aug-14 19:45 309 0 gusting 5 21.1
2020-Aug-14 19:31 301 1 gusting 6 20.6
2020-Aug-14 19:16 021 21.7
2020-Aug-14 19:01 064 2 gusting 6 22.2
2020-Aug-14 18:46 024 0 gusting 6 21.1
2020-Aug-14 18:32 040 2 gusting 6 20.6
2020-Aug-14 18:16 259 2 gusting 5 19.4
2020-Aug-14 18:01 294 1 gusting 4 20.0
2020-Aug-14 17:45 318 19.4
2020-Aug-14 17:31 027 3 gusting 6 18.3
2020-Aug-14 17:16 032 2 gusting 6 18.3
2020-Aug-14 17:01 031 0 gusting 6 18.3
2020-Aug-14 16:46 065 3 gusting 5 17.8
2020-Aug-14 16:31 105 1 gusting 6 17.2
2020-Aug-14 16:15 030 1 gusting 7 17.2
2020-Aug-14 16:00 027 1 gusting 4 16.7
2020-Aug-14 15:45 027 2 gusting 4 16.1
2020-Aug-14 15:30 345 3 gusting 6 16.1
2020-Aug-14 15:15 065 2 gusting 7 15.6
2020-Aug-14 15:00 066 0 gusting 4 15.0
2020-Aug-14 14:45 043 1 gusting 3 14.4
2020-Aug-14 14:30 066 2 gusting 5 13.9
2020-Aug-14 14:15 084 1 gusting 5 13.3
2020-Aug-14 14:00 018 0 gusting 5 13.3
2020-Aug-14 13:46
2020-Aug-14 13:32
2020-Aug-14 13:18
2020-Aug-14 13:02
2020-Aug-14 12:46
2020-Aug-14 12:31
2020-Aug-14 12:16
2020-Aug-14 12:01 058 12.2
2020-Aug-14 11:46 027 12.8
2020-Aug-14 11:31 016 12.2
2020-Aug-14 11:16 006 12.8
2020-Aug-14 11:00 061 13.3
2020-Aug-14 10:46 025 13.3
2020-Aug-14 10:30 060 0 gusting 4 13.9
2020-Aug-14 10:15 037 0 gusting 3 13.9
2020-Aug-14 10:01 061 0 gusting 2 13.9
2020-Aug-14 09:45 072 0 gusting 4 13.9
2020-Aug-14 09:30 030 0 gusting 3 13.9
2020-Aug-14 09:15 039 14.4
2020-Aug-14 09:00 012 0 gusting 3 14.4
2020-Aug-14 08:45 009 14.4
2020-Aug-14 08:30 027 14.4
2020-Aug-14 08:15 008 14.4
2020-Aug-14 08:00 039 15.0
2020-Aug-14 07:45 008 15.0
2020-Aug-14 07:30 030 0 gusting 3 15.0
2020-Aug-14 07:16 030 15.0
2020-Aug-14 07:01 078 0 gusting 3 15.6
2020-Aug-14 06:46 042 2 gusting 4 15.6
2020-Aug-14 06:31 051 15.6
2020-Aug-14 06:16 043 0 gusting 5 15.6
2020-Aug-14 06:02 039 16.1
2020-Aug-14 05:46 036 16.1
2020-Aug-14 05:32 057 0 gusting 3 16.1
2020-Aug-14 05:16 018 0 gusting 3 16.1
2020-Aug-14 05:01 044 0 gusting 3 16.7
2020-Aug-14 04:47 021 16.7
2020-Aug-14 04:31 016 16.7
2020-Aug-14 04:16 020 0 gusting 2 17.2
2020-Aug-14 04:01 026 0 gusting 3 17.2
2020-Aug-14 03:46 004 0 gusting 3 17.8
2020-Aug-14 03:31 359 18.3
2020-Aug-14 03:15 283 18.9
2020-Aug-14 03:01 295 19.4
2020-Aug-14 02:46 288 20.0
2020-Aug-14 02:16 280 21.1
2020-Aug-14 02:01 304 21.7
2020-Aug-14 01:46 269 0 gusting 3 21.7
2020-Aug-14 01:30 297 0 gusting 3 21.7
2020-Aug-14 01:16 278 1 gusting 5 22.2
2020-Aug-14 01:00 307 22.8
2020-Aug-14 00:46 294 22.2
2020-Aug-14 00:15 281 2 gusting 5 22.8
2020-Aug-14 00:00 304 22.2
2020-Aug-13 23:00 284 2 gusting 6 22.2
2020-Aug-13 22:45 304 1 gusting 6 21.7
2020-Aug-13 22:30 294 0 gusting 6 21.7
2020-Aug-13 22:15 271 0 gusting 5 22.2
2020-Aug-13 22:00 287 1 gusting 6 21.7
2020-Aug-13 21:45 274 1 gusting 6 21.7
2020-Aug-13 21:30 095 21.1
2020-Aug-13 21:16 273 1 gusting 5 20.6
2020-Aug-13 21:00 267 1 gusting 5 20.0
2020-Aug-13 20:45 233 1 gusting 5 20.6
2020-Aug-13 20:30 278 2 gusting 6 20.0
2020-Aug-13 20:15 273 2 gusting 7 20.0
2020-Aug-13 20:00 281 3 gusting 6 20.0